Weather History for KOQT - January, 2013

Change the Weather History Date:

Thursday, January 10, 2013

  Actual Average (KTYS) Record (KTYS)
Temperature  
Mean Temperature 55 °F 38 °F  
Max Temperature 62 °F 47 °F 76 °F (1949)
Min Temperature 48 °F 29 °F -4 °F (1970)
Degree Days  
Heating Degree Days 10 27  
Month to date heating degree days 270  
Since 1 July heating degree days 1703  
Cooling Degree Days 0 0  
Month to date cooling degree days 0  
Year to date cooling degree days 0  
Growing Degree Days 5 (Base 50)    
Moisture  
Dew Point 48 °F    
Average Humidity 83    
Maximum Humidity 94    
Minimum Humidity 64    
Precipitation  
Precipitation 0.00 in 0.15 in 1.66 in (1965)
Month to date precipitation 1.35  
Year to date precipitation 1.35  
Snow  
Snow 0.00 in 0.10 in - ()
Month to date snowfall 0.7  
Since 1 July snowfall 1.5  
Snow Depth -    
Sea Level Pressure  
Sea Level Pressure 30.38 in    
Wind  
Wind Speed 3 mph (NE)    
Max Wind Speed 7 mph    
Max Gust Speed -    
Visibility 9 miles    
Events      
T = Trace of Precipitation, MM = Missing Value Source: NWS Daily Summary

Daily Weather History Graph

Daily Weather History Graph

Search for Another Location

Airport or City:

Trip Planner

Search our weather history database for the weather conditions in past years. The results will help you decide how hot, cold, wet, or windy it might be!

Date:

Astronomy

Jan. 10, 2013 Rise Set
Actual Time 7:47 AM EST 5:41 PM EST
Civil Twilight 7:19 AM EST 6:09 PM EST
Nautical Twilight 6:47 AM EST 6:41 PM EST
Astronomical Twilight 6:17 AM EST 7:12 PM EST
Moon 6:26 AM EST (1/10) 4:48 PM EST (1/10)
Length of Visible Light 10h 50m
Length of Day
9h 53m
Waning Crescent, 2% of the Moon is Illuminated
Jan 10
Waning Crescent
Jan 11
New
Jan 18
First Quarter
Jan 26
Full
Feb 3
Last Quarter

Hourly Weather History & Observations

Time (EST) Temp. Dew Point Humidity Pressure Visibility Wind Dir Wind Speed Gust Speed Precip Events Conditions
12:53 AM 50.0 °F 46.9 °F 89% 30.49 in 9.0 mi NE 4.6 mph - N/A   Overcast
1:53 AM 51.1 °F 48.0 °F 89% 30.47 in 10.0 mi NE 4.6 mph - N/A   Overcast
2:36 AM 51.8 °F 48.2 °F 88% 30.46 in 10.0 mi NE 4.6 mph - N/A   Mostly Cloudy
2:53 AM 51.1 °F 48.0 °F 89% 30.48 in 10.0 mi East 3.5 mph - N/A   Scattered Clouds
3:53 AM 50.0 °F 48.0 °F 93% 30.47 in 8.0 mi Calm Calm - N/A   Mostly Cloudy
4:50 AM 50.0 °F 48.2 °F 94% 30.44 in 8.0 mi Calm Calm - N/A   Overcast
4:53 AM 50.0 °F 48.0 °F 93% 30.45 in 8.0 mi Calm Calm - N/A   Mostly Cloudy
5:10 AM 48.2 °F 46.4 °F 93% 30.44 in 7.0 mi Calm Calm - N/A   Scattered Clouds
5:53 AM 48.9 °F 46.9 °F 93% 30.45 in 7.0 mi NE 3.5 mph - N/A   Partly Cloudy
6:53 AM 48.9 °F 46.9 °F 93% 30.45 in 6.0 mi Calm Calm - N/A   Scattered Clouds
7:53 AM 48.9 °F 46.9 °F 93% 30.45 in 8.0 mi NNE 3.5 mph - N/A   Scattered Clouds
8:53 AM 50.0 °F 46.9 °F 89% 30.46 in 10.0 mi NNE 3.5 mph - N/A   Mostly Cloudy
9:53 AM 53.1 °F 48.0 °F 83% 30.46 in 10.0 mi Variable 3.5 mph - N/A   Overcast
10:53 AM 54.0 °F 46.9 °F 77% 30.45 in 10.0 mi NE 5.8 mph - N/A   Mostly Cloudy
11:53 AM 55.0 °F 46.9 °F 74% 30.42 in 10.0 mi NE 4.6 mph - N/A   Overcast
12:53 PM 57.0 °F 48.0 °F 72% 30.37 in 10.0 mi ENE 6.9 mph - N/A   Overcast
1:53 PM 57.9 °F 48.0 °F 70% 30.35 in 10.0 mi Variable 3.5 mph - N/A   Overcast
2:53 PM 62.1 °F 50.0 °F 65% 30.33 in 10.0 mi Calm Calm - N/A   Overcast
3:53 PM 61.0 °F 48.9 °F 64% 30.33 in 10.0 mi NE 3.5 mph - N/A   Scattered Clouds
4:53 PM 60.1 °F 48.9 °F 67% 30.32 in 10.0 mi Calm Calm - N/A   Clear
5:53 PM 57.9 °F 48.9 °F 72% 30.30 in 10.0 mi Calm Calm - N/A   Clear
6:53 PM 55.9 °F 48.9 °F 77% 30.30 in 10.0 mi Calm Calm - N/A   Overcast
7:53 PM 54.0 °F 48.9 °F 83% 30.28 in 10.0 mi Calm Calm - N/A   Mostly Cloudy
8:53 PM 51.1 °F 48.0 °F 89% 30.27 in 10.0 mi Calm Calm - N/A   Clear
9:53 PM 51.1 °F 48.9 °F 92% 30.22 in 10.0 mi Calm Calm - N/A   Overcast
10:53 PM 52.0 °F 48.0 °F 86% 30.21 in 10.0 mi Calm Calm - N/A   Overcast
11:53 PM 52.0 °F 48.0 °F 86% 30.17 in 10.0 mi Calm Calm - N/A   Mostly Cloudy